SSEC Globe Logo

Space Science and Engineering Center

Surface Aviation Observations

KAIG 292115Z AUTO 32012G18KT 10SM BKN012 OVC017 03/02 A2954
     RMK AO2 T00250015=
KAIG 292115Z AUTO 32012G18KT 10SM BKN012 OVC017 03/02 A2954
     RMK AO2 T00250015=
KAIG 292055Z AUTO 31011G15KT 5SM BR OVC011 03/02 A2952 RMK
     AO2 T00250016=
KAIG 292055Z AUTO 31011G15KT 5SM BR OVC011 03/02 A2952 RMK
     AO2 T00250016=
KC29 292115Z AUTO 27020G27KT 10SM OVC020 06/02 A2967 RMK AO1
     T00610019=
KC29 292115Z AUTO 27020G27KT 10SM OVC020 06/02 A2967 RMK AO1
     T00610019=
KC29 292055Z AUTO 28017G26KT 10SM OVC020 06/02 A2965 RMK AO1
     T00610020=
KC29 292055Z AUTO 28017G26KT 10SM OVC020 06/02 A2965 RMK AO1
     T00610020=
KBCK 292115Z AUTO 31007KT 10SM -DZ BKN019 OVC025 05/02 A2969
     RMK AO2 T00450022=
KBCK 292115Z AUTO 31007KT 10SM -DZ BKN019 OVC025 05/02 A2969
     RMK AO2 T00450022=
KBCK 292055Z AUTO 31012G21KT 10SM -RA SCT020 BKN026 OVC031
     05/02 A2967 RMK AO2 T00460016=
KBCK 292055Z AUTO 31012G21KT 10SM -RA SCT020 BKN026 OVC031
     05/02 A2967 RMK AO2 T00460016=
KUBE 292115Z AUTO 33017G24KT 10SM -RA OVC016 03/01 A2975 RMK
     AO2=
KUBE 292115Z AUTO 33017G24KT 10SM -RA OVC016 03/01 A2975 RMK
     AO2=
KUBE 292055Z AUTO 34020G27KT 10SM -RA OVC014 03/01 A2973 RMK
     AO2=
KUBE 292055Z AUTO 34020G27KT 10SM -RA OVC014 03/01 A2973 RMK
     AO2=
KPVB 292115Z AUTO 27023G35KT 10SM OVC023 06/03 A2975 RMK AO1
     T00550033=
KPVB 292115Z AUTO 27023G35KT 10SM OVC023 06/03 A2975 RMK AO1
     T00550033=
KPVB 292055Z AUTO 27023G28KT 10SM OVC021 06/03 A2973 RMK AO1
     T00570031=
KPVB 292055Z AUTO 27023G28KT 10SM OVC021 06/03 A2973 RMK AO1
     T00570031=
KEZS 292115Z AUTO 29009KT 10SM OVC014 06/04 A2953 RMK AO2
     T00600037=
KEZS 292115Z AUTO 29009KT 10SM OVC014 06/04 A2953 RMK AO2
     T00600037=
KEZS 292055Z AUTO 30008KT 10SM OVC014 06/04 A2952 RMK AO2
     T00620040=
KEZS 292055Z AUTO 30008KT 10SM OVC014 06/04 A2952 RMK AO2
     T00620040=
KARV 292115Z AUTO 35014G18KT 7SM OVC013 03/01 A2957 RMK AO2
     T00250010=
KARV 292115Z AUTO 35014G18KT 7SM OVC013 03/01 A2957 RMK AO2
     T00250010=
KARV 292055Z AUTO 35015G20KT 7SM OVC013 03/01 A2956 RMK AO2
     T00250010=
KARV 292055Z AUTO 35015G20KT 7SM OVC013 03/01 A2956 RMK AO2
     T00250010=
KASX 292053Z AUTO 36015G22KT 4SM -RA BR OVC011 03/02 A2972
     RMK AO2 UPE53RAB53 SLP074 P0003 60013 T00330022 53042=
KASX 292053Z AUTO 36015G22KT 4SM -RA BR OVC011 03/02 A2972
     RMK AO2 UPE53RAB53 SLP074 P0003 60013 T00330022 53042=
KATW 292045Z 28015G21KT 10SM OVC014 06/04 A2951=
KATW 292045Z 28015G21KT 10SM OVC014 06/04 A2951=
KAUW 292112Z AUTO 31009G19KT 10SM OVC022 04/01 A2955 RMK AO2
     T00440011 $=
KBUU 292115Z AUTO 26017G27KT 10SM OVC021 07/02 A2967 RMK AO2
     T00650024=
KBUU 292115Z AUTO 26017G27KT 10SM OVC021 07/02 A2967 RMK AO2
     T00650024=
KBUU 292055Z AUTO 25011G23KT 210V280 10SM OVC021 07/03 A2965
     RMK AO2 T00650027=
KBUU 292055Z AUTO 25011G23KT 210V280 10SM OVC021 07/03 A2965
     RMK AO2 T00650027=
KCLI 292115Z AUTO 32009G15KT 10SM BKN018 OVC024 06/03 A2955
     RMK AO2 T00550025=
KCLI 292115Z AUTO 32009G15KT 10SM BKN018 OVC024 06/03 A2955
     RMK AO2 T00550025=
KCLI 292055Z AUTO 30014G18KT 10SM -RA BKN016 OVC024 06/03
     A2953 RMK AO2 T00550026=
KCLI 292055Z AUTO 30014G18KT 10SM -RA BKN016 OVC024 06/03
     A2953 RMK AO2 T00550026=
KCMY 292115Z AUTO 31014G23KT 10SM BKN026 OVC033 05/02 A2970
     RMK AO2 T00460015=
KCMY 292115Z AUTO 31014G23KT 10SM BKN026 OVC033 05/02 A2970
     RMK AO2 T00460015=
KCMY 292055Z AUTO 31010KT 10SM BKN023 OVC030 05/02 A2968 RMK
     AO2 T00460019=
KCMY 292055Z AUTO 31010KT 10SM BKN023 OVC030 05/02 A2968 RMK
     AO2 T00460019=
KCWA 292047Z 30009G16KT 10SM -DZ BKN015 OVC021 04/02 A2957=
KCWA 292047Z 30009G16KT 10SM -DZ BKN015 OVC021 04/02 A2957=
KDLL 292115Z AUTO 28012G17KT 10SM SCT012 OVC018 04/02 A2965
     RMK AO2 T00370017=
KDLL 292115Z AUTO 28012G17KT 10SM SCT012 OVC018 04/02 A2965
     RMK AO2 T00370017=
KDLL 292055Z AUTO 27014G18KT 7SM OVC014 04/02 A2963 RMK AO2
     T00350023=
KDLL 292055Z AUTO 27014G18KT 7SM OVC014 04/02 A2963 RMK AO2
     T00350023=
KEAU 292056Z 32010G22KT 7SM -RA BKN016 OVC028 04/02 A2970
     RMK AO2 RAB13 SLP063 P0000 60000 T00440022 53048=
KEAU 292056Z 32010G22KT 7SM -RA BKN016 OVC028 04/02 A2970
     RMK AO2 RAB13 SLP063 P0000 60000 T00440022 53048=
KEFT 292115Z AUTO 27024G32KT 10SM OVC020 06/01 A2970 RMK AO2
     T00560012=
KEFT 292115Z AUTO 27024G32KT 10SM OVC020 06/01 A2970 RMK AO2
     T00560012=
KEFT 292055Z AUTO 26024G32KT 10SM OVC020 06/01 A2968 RMK AO2
     T00560014=
KEFT 292055Z AUTO 26024G32KT 10SM OVC020 06/01 A2968 RMK AO2
     T00560014=
KEGV 292115Z AUTO 33010G14KT 1 1/2SM UP OVC006 01/01 A2955
     RMK AO2 T00080008=
KEGV 292115Z AUTO 33010G14KT 1 1/2SM UP OVC006 01/01 A2955
     RMK AO2 T00080008=
KEGV 292055Z AUTO 33010KT 1 1/2SM UP OVC006 01/01 A2953 RMK
     AO2 T00080008=
KEGV 292055Z AUTO 33010KT 1 1/2SM UP OVC006 01/01 A2953 RMK
     AO2 T00080008=
KENW 292053Z 25024G37KT 10SM OVC021 08/03 A2964 RMK AO2 PK
     WND 24039/2041 SLP038 T00780028 53041=
KENW 292053Z 25024G37KT 10SM OVC021 08/03 A2964 RMK AO2 PK
     WND 24039/2041 SLP038 T00780028 53041=
KETB 292115Z AUTO 27014G25KT 3SM BR OVC010 05/05 A2958 RMK
     AO2=
KETB 292115Z AUTO 27014G25KT 3SM BR OVC010 05/05 A2958 RMK
     AO2=
KETB 292055Z AUTO 25014G20KT 2SM +DZ OVC010 05/05 A2956 RMK
     AO2=
KETB 292055Z AUTO 25014G20KT 2SM +DZ OVC010 05/05 A2956 RMK
     AO2=
KFLD 292053Z AUTO 28018G26KT 10SM -RA BKN017 OVC022 07/04
     A2955 RMK AO2 PK WND 29028/2027 RAB1957 SLP012 P0000
     60005 T00670039 53049=
KFLD 292053Z AUTO 28018G26KT 10SM -RA BKN017 OVC022 07/04
     A2955 RMK AO2 PK WND 29028/2027 RAB1957 SLP012 P0000
     60005 T00670039 53049=
KGRB 292053Z 29014KT 10SM -RA FEW010 OVC015 07/03 A2951 RMK
     AO2 RAE08B42 PRESRR SLP997 P0000 60004 T00670033 53043=
KGRB 292053Z 29014KT 10SM -RA FEW010 OVC015 07/03 A2951 RMK
     AO2 RAE08B42 PRESRR SLP997 P0000 60004 T00670033 53043=
KHYR 292053Z AUTO 35008G21KT 7SM -RA BKN011 OVC018 03/01
     A2971 RMK AO2 PRESRR SLP075 P0003 60006 T00280011
     51032=
KHYR 292053Z AUTO 35008G21KT 7SM -RA BKN011 OVC018 03/01
     A2971 RMK AO2 PRESRR SLP075 P0003 60006 T00280011
     51032=
KHYR 292051Z AUTO 35010G21KT 7SM -RA SCT011 OVC015 03/01
     A2971 RMK AO2 P0003=
KISW 292054Z AUTO 30016G21KT 10SM OVC021 04/02 A2960 RMK AO2
     SLP031 60000 T00440017 53045=
KISW 292054Z AUTO 30016G21KT 10SM OVC021 04/02 A2960 RMK AO2
     SLP031 60000 T00440017 53045=
KJVL 292045Z 26013G29KT 10SM OVC023 07/03 A2968=
KJVL 292045Z 26013G29KT 10SM OVC023 07/03 A2968=
KLNL 292115Z AUTO 34008G16KT 1 3/4SM -SN OVC004 01/01 A2956
     RMK AO2 T00100007=
KLNL 292115Z AUTO 34008G16KT 1 3/4SM -SN OVC004 01/01 A2956
     RMK AO2 T00100007=
KLNL 292055Z AUTO 33009G15KT 1 3/4SM UP OVC004 01/01 A2955
     RMK AO2 T00100008=
KLNL 292055Z AUTO 33009G15KT 1 3/4SM UP OVC004 01/01 A2955
     RMK AO2 T00100008=
KLNR 292056Z AUTO 28017G25KT 10SM -RA OVC024 06/02 A2969 RMK
     AO2 PK WND 28029/2015 RAB51 SLP052 P0000 60000
     T00560017 51051=
KLNR 292056Z AUTO 28017G25KT 10SM -RA OVC024 06/02 A2969 RMK
     AO2 PK WND 28029/2015 RAB51 SLP052 P0000 60000
     T00560017 51051=
KLSE 292053Z 32018G29KT 10SM -RA BKN024 BKN032 OVC043 07/02
     A2970 RMK AO2 PK WND 32029/2046 RAB46 PRESRR SLP062
     P0000 60000 T00670017 53045=
KLSE 292053Z 32018G29KT 10SM -RA BKN024 BKN032 OVC043 07/02
     A2970 RMK AO2 PK WND 32029/2046 RAB46 PRESRR SLP062
     P0000 60000 T00670017 53045=
KLUM 292115Z AUTO 31016G21KT 4SM RA BKN019 OVC024 03/02
     A2974 RMK AO2 T00330016=
KLUM 292115Z AUTO 31016G21KT 4SM RA BKN019 OVC024 03/02
     A2974 RMK AO2 T00330016=
KLUM 292055Z AUTO 31013G21KT 5SM -DZ BKN018 OVC024 03/01
     A2973 RMK AO2 T00310009=
KLUM 292055Z AUTO 31013G21KT 5SM -DZ BKN018 OVC024 03/01
     A2973 RMK AO2 T00310009=
KMDZ 292115Z AUTO 33016G21KT 10SM OVC019 02/00 A2961 RMK AO2
     T00201004=
KMDZ 292115Z AUTO 33016G21KT 10SM OVC019 02/00 A2961 RMK AO2
     T00201004=
KMDZ 292055Z AUTO 32015G24KT 10SM OVC017 02/00 A2959 RMK AO2
     T00201004=
KMDZ 292055Z AUTO 32015G24KT 10SM OVC017 02/00 A2959 RMK AO2
     T00201004=
KMFI 292054Z AUTO 31017G26KT 10SM OVC019 04/01 A2958 RMK AO2
     PK WND 31026/2032 SLP028 60000 T00390006 53044=
KMFI 292054Z AUTO 31017G26KT 10SM OVC019 04/01 A2958 RMK AO2
     PK WND 31026/2032 SLP028 60000 T00390006 53044=
KMKE 292052Z 24016G26KT 10SM OVC015 07/03 A2960 RMK AO2 PK
     WND 26034/1959 RAB23E48 SLP028 P0000 60000 T00670033
     53043 $=
KMKE 292052Z 24016G26KT 10SM OVC015 07/03 A2960 RMK AO2 PK
     WND 26034/1959 RAB23E48 SLP028 P0000 60000 T00670033
     53043 $=
KMRJ 292115Z AUTO 27018G22KT 10SM OVC019 06/02 A2970 RMK
     AO2=
KMRJ 292115Z AUTO 27018G22KT 10SM OVC019 06/02 A2970 RMK
     AO2=
KMRJ 292055Z AUTO 28016G21KT 10SM OVC019 06/02 A2969 RMK
     AO2=
KMRJ 292055Z AUTO 28016G21KT 10SM OVC019 06/02 A2969 RMK
     AO2=
KMSN 292053Z 28010G21KT 10SM OVC017 06/02 A2964 RMK AO2 PK
     WND 25028/1955 SLP040 60000 T00610017 53051=
KMSN 292053Z 28010G21KT 10SM OVC017 06/02 A2964 RMK AO2 PK
     WND 25028/1955 SLP040 60000 T00610017 53051=
KMTW 292056Z AUTO 28014G19KT 10SM -RA BKN015 BKN021 OVC029
     08/06 A2950 RMK AO2 SLP992 P0000 60001 T00780061 53034=
KMTW 292056Z AUTO 28014G19KT 10SM -RA BKN015 BKN021 OVC029
     08/06 A2950 RMK AO2 SLP992 P0000 60001 T00780061 53034=
KMWC 292045Z 25018G25KT 7SM OVC013 06/03 A2959=
KMWC 292045Z 25018G25KT 7SM OVC013 06/03 A2959=
KOEO 292115Z AUTO 33009KT 10SM BKN055 OVC065 06/02 A2984 RMK
     AO2 T00600023 PWINO=
KOEO 292115Z AUTO 33009KT 10SM BKN055 OVC065 06/02 A2984 RMK
     AO2 T00600023 PWINO=
KOEO 292055Z AUTO 35007G15KT 10SM SCT025 SCT045 OVC060 06/03
     A2983 RMK AO2 P0001 60002 T00550025 PWINO=
KOEO 292055Z AUTO 35007G15KT 10SM SCT025 SCT045 OVC060 06/03
     A2983 RMK AO2 P0001 60002 T00550025 PWINO=
KOSH 292053Z 28014G23KT 10SM OVC016 06/04 A2954 RMK AO2 PK
     WND 29027/1958 RAB09E43 PRESRR SLP010 P0001 60004
     T00610039 53050=
KOSH 292053Z 28014G23KT 10SM OVC016 06/04 A2954 RMK AO2 PK
     WND 29027/1958 RAB09E43 PRESRR SLP010 P0001 60004
     T00610039 53050=
KOVS 292053Z AUTO 27010G25KT 10SM -RA BKN025 OVC032 06/02
     A2972 RMK AO2 RAB14 SLP069 P0000 60000 T00610022 53045=
KOVS 292053Z AUTO 27010G25KT 10SM -RA BKN025 OVC032 06/02
     A2972 RMK AO2 RAB14 SLP069 P0000 60000 T00610022 53045=
KPBH 292135Z AUTO 33009KT 10SM RA OVC011 01/01 A2963 RMK AO2
     T00080008=
KPBH 292135Z AUTO 33009KT 10SM RA OVC011 01/01 A2963 RMK AO2
     T00080008=
KPBH 292115Z AUTO 34008KT 3SM UP OVC011 01/01 A2962 RMK AO2
     T00060006=
KPBH 292115Z AUTO 34008KT 3SM UP OVC011 01/01 A2962 RMK AO2
     T00060006=
KPBH 292055Z AUTO 34010G14KT 7SM DZ OVC013 01/00 A2959 RMK
     AO2 T00100003=
KPBH 292055Z AUTO 34010G14KT 7SM DZ OVC013 01/00 A2959 RMK
     AO2 T00100003=
KPCZ 292115Z AUTO 27012G19KT 10SM BKN019 OVC026 07/03 A2958
     RMK AO2 T00670032=
KPCZ 292115Z AUTO 27012G19KT 10SM BKN019 OVC026 07/03 A2958
     RMK AO2 T00670032=
KPCZ 292055Z AUTO 28008G15KT 10SM OVC017 07/03 A2956 RMK AO2
     T00660033=
KPCZ 292055Z AUTO 28008G15KT 10SM OVC017 07/03 A2956 RMK AO2
     T00660033=
KPDC 292115Z AUTO 27012G19KT 10SM SCT027 OVC038 06/01 A2976
     RMK AO2 T00640014=
KPDC 292115Z AUTO 27012G19KT 10SM SCT027 OVC038 06/01 A2976
     RMK AO2 T00640014=
KPDC 292055Z AUTO 28016G21KT 10SM BKN029 OVC034 06/01 A2974
     RMK AO2 T00610011=
KPDC 292055Z AUTO 28016G21KT 10SM BKN029 OVC034 06/01 A2974
     RMK AO2 T00610011=
KRAC 292053Z AUTO 25014G25KT 10SM FEW015 OVC021 07/03 A2963
     RMK AO2 PK WND 26037/2002 RAB07E50 SLP038 P0000 60000
     T00670033 53043 $=
KRAC 292053Z AUTO 25014G25KT 10SM FEW015 OVC021 07/03 A2963
     RMK AO2 PK WND 26037/2002 RAB07E50 SLP038 P0000 60000
     T00670033 53043 $=
KRCX 292115Z AUTO 33010G19KT 10SM -RA BKN009 BKN015 OVC019
     04/03 A2969 RMK AO2 T00350034=
KRCX 292115Z AUTO 33010G19KT 10SM -RA BKN009 BKN015 OVC019
     04/03 A2969 RMK AO2 T00350034=
KRCX 292055Z AUTO 32009KT 7SM -RA BKN009 OVC015 03/02 A2967
     RMK AO2 P0001 60001 T00250024=
KRCX 292055Z AUTO 32009KT 7SM -RA BKN009 OVC015 03/02 A2967
     RMK AO2 P0001 60001 T00250024=
KRHI 292053Z AUTO 33009G17KT 300V360 10SM OVC014 02/M01
     A2954 RMK AO2 SLP018 T00221006 53041=
KRHI 292053Z AUTO 33009G17KT 300V360 10SM OVC014 02/M01
     A2954 RMK AO2 SLP018 T00221006 53041=
KRNH 292115Z AUTO 33014G30KT 10SM SCT018 BKN030 OVC038 05/02
     A2980 RMK AO2 T00450018=
KRNH 292115Z AUTO 33014G30KT 10SM SCT018 BKN030 OVC038 05/02
     A2980 RMK AO2 T00450018=
KRNH 292055Z AUTO 34016G30KT 10SM -RA SCT018 OVC023 04/02
     A2979 RMK AO2 P0001 60003 T00430019=
KRNH 292055Z AUTO 34016G30KT 10SM -RA SCT018 OVC023 04/02
     A2979 RMK AO2 P0001 60003 T00430019=
KRPD 292115Z AUTO 34011G18KT 10SM DZ BKN016 OVC020 04/02
     A2975 RMK AO2 T00370019=
KRPD 292115Z AUTO 34011G18KT 10SM DZ BKN016 OVC020 04/02
     A2975 RMK AO2 T00370019=
KRPD 292055Z AUTO 32010G21KT 10SM RA OVC014 04/02 A2972 RMK
     AO2 T00370022=
KRPD 292055Z AUTO 32010G21KT 10SM RA OVC014 04/02 A2972 RMK
     AO2 T00370022=
KRRL 292115Z AUTO 33010G16KT 10SM OVC019 04/01 A2958 RMK AO2
     T00380009 TSNO=
KRRL 292115Z AUTO 33010G16KT 10SM OVC019 04/01 A2958 RMK AO2
     T00380009 TSNO=
KRRL 292055Z AUTO 33011G15KT 10SM OVC021 04/01 A2955 RMK AO2
     T00420010 TSNO=
KRRL 292055Z AUTO 33011G15KT 10SM OVC021 04/01 A2955 RMK AO2
     T00420010 TSNO=
KRYV 292115Z AUTO 25011G24KT 10SM OVC015 05/04 A2964 RMK AO2
     T00530041=
KRYV 292115Z AUTO 25011G24KT 10SM OVC015 05/04 A2964 RMK AO2
     T00530041=
KRYV 292055Z AUTO 25017G25KT 10SM OVC015 06/05 A2962 RMK AO2
     T00550045=
KRYV 292055Z AUTO 25017G25KT 10SM OVC015 06/05 A2962 RMK AO2
     T00550045=
KRZN 292115Z AUTO 02015G28KT 10SM SCT034 BKN043 OVC049 05/04
     A2979 RMK AO2 T00450042=
KRZN 292115Z AUTO 02015G28KT 10SM SCT034 BKN043 OVC049 05/04
     A2979 RMK AO2 T00450042=
KRZN 292055Z AUTO 01009G15KT 10SM SCT033 BKN040 OVC048 04/04
     A2978 RMK AO2 60002 T00420040=
KRZN 292055Z AUTO 01009G15KT 10SM SCT033 BKN040 OVC048 04/04
     A2978 RMK AO2 60002 T00420040=
KSBM 292053Z AUTO 28020G30KT 5SM -RA FEW008 BKN015 OVC021
     09/05 A2952 RMK AO2 PK WND 28030/2053 WSHFT 2022 PRESRR
     SLP999 P0005 60007 T00890050 53038=
KSBM 292053Z AUTO 28020G30KT 5SM -RA FEW008 BKN015 OVC021
     09/05 A2952 RMK AO2 PK WND 28030/2053 WSHFT 2022 PRESRR
     SLP999 P0005 60007 T00890050 53038=
KSBM 292046Z AUTO 28017G22KT 3SM -RA FEW008 BKN013 OVC019
     09/06 A2951 RMK AO2 PK WND 30027/2031 WSHFT 2022 PRESRR
     P0005 T00890056=
KSTE 292115Z AUTO 30008G14KT 7SM -DZ OVC016 03/02 A2959 RMK
     AO2 T00330015=
KSTE 292115Z AUTO 30008G14KT 7SM -DZ OVC016 03/02 A2959 RMK
     AO2 T00330015=
KSTE 292055Z AUTO 30008G15KT 10SM OVC016 04/02 A2957 RMK AO2
     T00350015=
KSTE 292055Z AUTO 30008G15KT 10SM OVC016 04/02 A2957 RMK AO2
     T00350015=
KSUE 292056Z AUTO 28008KT 10SM -RA FEW003 OVC020 06/04 A2948
     RMK AO2 SLP986 P0002 60006 T00560044 53038=
KSUE 292056Z AUTO 28008KT 10SM -RA FEW003 OVC020 06/04 A2948
     RMK AO2 SLP986 P0002 60006 T00560044 53038=
KSUW 292115Z AUTO 04010G19KT 10SM SCT050 OVC060 08/M01 A2980
     RMK AO2 T00801012=
KSUW 292115Z AUTO 04010G19KT 10SM SCT050 OVC060 08/M01 A2980
     RMK AO2 T00801012=
KSUW 292055Z AUTO 03013G19KT 10SM BKN049 OVC060 08/M01 A2978
     RMK AO2 T00781012=
KSUW 292055Z AUTO 03013G19KT 10SM BKN049 OVC060 08/M01 A2978
     RMK AO2 T00781012=
KTKV 292115Z AUTO 32011G16KT 5SM BKN013 OVC021 02/00 A2959
     RMK AO2 T00151003 PWINO=
KTKV 292115Z AUTO 32011G16KT 5SM BKN013 OVC021 02/00 A2959
     RMK AO2 T00151003 PWINO=
KTKV 292055Z AUTO 32012KT 280V340 10SM OVC017 02/00 A2957
     RMK AO2 T00201003 PWINO=
KTKV 292055Z AUTO 32012KT 280V340 10SM OVC017 02/00 A2957
     RMK AO2 T00201003 PWINO=
KUES 292045Z 25017G25KT 10SM OVC014 04/03 A2961=
KUES 292045Z 25017G25KT 10SM OVC014 04/03 A2961=
KUNU 292115Z AUTO 25016G24KT 5SM -RA BKN010 OVC014 05/04
     A2962 RMK AO2 T00540044=
KUNU 292115Z AUTO 25016G24KT 5SM -RA BKN010 OVC014 05/04
     A2962 RMK AO2 T00540044=
KUNU 292055Z AUTO 25014G21KT 5SM -DZ BKN009 BKN013 OVC024
     06/05 A2960 RMK AO2 P0001 60001 T00550048=
KUNU 292055Z AUTO 25014G21KT 5SM -DZ BKN009 BKN013 OVC024
     06/05 A2960 RMK AO2 P0001 60001 T00550048=
KVOK 292056Z AUTO 28015KT 10SM BKN019 OVC025 05/05 A2963 RMK
     AO2 SLP043 60000 T00480048 52046=
KVOK 292056Z AUTO 28015KT 10SM BKN019 OVC025 05/05 A2963 RMK
     AO2 SLP043 60000 T00480048 52046=
KVOK 292056Z AUTO 28015KT 10SM BKN019 OVC025 05/05 A2963 RMK
     AO2 SLP043 60000 T00480048 52046=
METAR KVOK 292056Z AUTO 28015KT 10SM BKN019 OVC025 05/05
     A2963 RMK AO2 SLP043 60000 T00480048 52046=
METAR KVOK 292056Z AUTO 28015KT 10SM BKN019 OVC025 05/05
     A2963 RMK AO2 SLP043 60000 T00480048 52046=
KY50 292056Z AUTO 28015KT 10SM -RA 05/03 A2960 RMK AO2 RAB07
     PRESRR SLP026 P0000 60000 T00500033 53054 $=
KY50 292056Z AUTO 28015KT 10SM -RA 05/03 A2960 RMK AO2 RAB07
     PRESRR SLP026 P0000 60000 T00500033 53054 $=
KY51 292115Z AUTO 30015G19KT 10SM OVC017 04/03 A2969 RMK AO1
     T00420030=
KY51 292115Z AUTO 30015G19KT 10SM OVC017 04/03 A2969 RMK AO1
     T00420030=
KY51 292055Z AUTO 30013G19KT 10SM OVC017 04/03 A2968 RMK AO1
     T00410031=
KY51 292055Z AUTO 30013G19KT 10SM OVC017 04/03 A2968 RMK AO1
     T00410031=
KY23 292115Z AUTO 34006G16KT 10SM -DZ OVC015 04/03 A2973 RMK
     AO2 T00360026=
KY23 292115Z AUTO 34006G16KT 10SM -DZ OVC015 04/03 A2973 RMK
     AO2 T00360026=
KY23 292055Z AUTO 33008G15KT 10SM DZ OVC013 04/03 A2971 RMK
     AO2 T00350026=
KY23 292055Z AUTO 33008G15KT 10SM DZ OVC013 04/03 A2971 RMK
     AO2 T00350026=
K3D2 292115Z AUTO 28005KT 10SM DZ SCT003 OVC009 04/04 A2946
     RMK AO2 T00410040=
K3D2 292115Z AUTO 28005KT 10SM DZ SCT003 OVC009 04/04 A2946
     RMK AO2 T00410040=
K3D2 292055Z AUTO 29006KT 10SM -DZ OVC003 04/04 A2945 RMK
     AO2 60003 T00420041=
K3D2 292055Z AUTO 29006KT 10SM -DZ OVC003 04/04 A2945 RMK
     AO2 60003 T00420041=
KD25 292115Z AUTO 34009G14KT 310V020 5SM BR OVC012 01/00
     A2960 RMK AO2 T00070000=
KD25 292115Z AUTO 34009G14KT 310V020 5SM BR OVC012 01/00
     A2960 RMK AO2 T00070000=
KD25 292055Z AUTO 35010G18KT 5SM BR OVC012 01/00 A2958 RMK
     AO2 T00080000=
KD25 292055Z AUTO 35010G18KT 5SM BR OVC012 01/00 A2958 RMK
     AO2 T00080000=
K82C 292115Z AUTO 28011KT 10SM OVC018 05/03 A2965 RMK AO2
     T00510025=
K82C 292115Z AUTO 28011KT 10SM OVC018 05/03 A2965 RMK AO2
     T00510025=
K82C 292055Z AUTO 29013G19KT 10SM OVC018 05/03 A2963 RMK AO2
     T00500025=
K82C 292055Z AUTO 29013G19KT 10SM OVC018 05/03 A2963 RMK AO2
     T00500025=
KOCQ 292115Z AUTO 29009KT 10SM OVC023 06/04 A2951 RMK AO1
     T00570036=
KOCQ 292115Z AUTO 29009KT 10SM OVC023 06/04 A2951 RMK AO1
     T00570036=
KOCQ 292055Z AUTO 30007KT 10SM SCT013 BKN021 OVC029 06/04
     A2949 RMK AO1 60001 T00580039=
KOCQ 292055Z AUTO 30007KT 10SM SCT013 BKN021 OVC029 06/04
     A2949 RMK AO1 60001 T00580039=
KC35 292115Z AUTO 27013G20KT 10SM OVC021 05/03 A2967 RMK AO2
     T00450026 PWINO=
KC35 292115Z AUTO 27013G20KT 10SM OVC021 05/03 A2967 RMK AO2
     T00450026 PWINO=
KC35 292055Z AUTO 26016G20KT 10SM SCT016 OVC024 05/03 A2965
     RMK AO2 T00470026 PWINO=
KC35 292055Z AUTO 26016G20KT 10SM SCT016 OVC024 05/03 A2965
     RMK AO2 T00470026 PWINO=
KOLG 292115Z AUTO 01008G21KT 10SM SCT018 SCT023 OVC034 03/02
     A2977 RMK AO1=
KOLG 292115Z AUTO 01008G21KT 10SM SCT018 SCT023 OVC034 03/02
     A2977 RMK AO1=
KOLG 292055Z AUTO 01013G22KT 10SM BKN021 BKN025 OVC031 04/02
     A2974 RMK AO1=
KOLG 292055Z AUTO 01013G22KT 10SM BKN021 BKN025 OVC031 04/02
     A2974 RMK AO1=
K2P2 292115Z AUTO 30004KT 1 1/2SM DZ OVC002 04/04 A2945 RMK
     AO2 T00350035=
K2P2 292115Z AUTO 30004KT 1 1/2SM DZ OVC002 04/04 A2945 RMK
     AO2 T00350035=
K2P2 292055Z AUTO 26005KT 1 3/4SM RA OVC002 04/04 A2944 RMK
     AO2 P0001 60003 T00350035=
K2P2 292055Z AUTO 26005KT 1 3/4SM RA OVC002 04/04 A2944 RMK
     AO2 P0001 60003 T00350035=
KDBQ 292110Z 28017G29KT 10SM SCT023 BKN033 OVC041 06/03
     A2977=
KDBQ 292110Z 28017G29KT 10SM SCT023 BKN033 OVC041 06/03
     A2977 RMK AO2 PK WND 29030/2054 RAE02 P0000 T00560028=
KDBQ 292053Z 27021G36KT 8SM -RA SCT022 BKN028 OVC036 06/02
     A2976 RMK AO2 PK WND 27036/2049 RAB52 SLP085 P0000
     60000 T00560022 51043=
KDBQ 292053Z 27021G36KT 8SM -RA SCT022 BKN028 OVC036 06/02
     A2976 RMK AO2 PK WND 27036/2049 RAB52 SLP085 P0000
     60000 T00560022 51043=
KRST 292117Z 31019KT 10SM -RA BKN015 BKN021 OVC028 04/02
     A2980 RMK AO2 PK WND 34027/2106 P0000 T00440022=
KRST 292101Z 33019G29KT 10SM -RA BKN014 BKN023 OVC030 04/02
     A2979 RMK AO2 PK WND 33026/2100 P0000 T00440022=
KRST 292054Z 33020G33KT 7SM -RA SCT012 BKN017 OVC026 04/02
     A2978 RMK AO2 PK WND 31037/2040 RAB04 SLP096 P0000
     60000 T00440017 53047=
KRST 292054Z 33020G33KT 7SM -RA SCT012 BKN017 OVC026 04/02
     A2978 RMK AO2 PK WND 31037/2040 RAB04 SLP096 P0000
     60000 T00440017 53047=
KMSP 292053Z 35018G29KT 10SM BKN036 OVC046 07/01 A2984 RMK
     AO2 PK WND 36037/1959 RAE42 SLP110 P0000 60000
     T00720011 53044 $=
KMSP 292053Z 35018G29KT 10SM BKN036 OVC046 07/01 A2984 RMK
     AO2 PK WND 36037/1959 RAE42 SLP110 P0000 60000
     T00720011 53044 $=
KRFD 292054Z 26018G34KT 10SM OVC027 08/02 A2973 RMK AO2 PK
     WND 26038/2013 SLP070 T00780022 51046 $=
KRFD 292054Z 26018G34KT 10SM OVC027 08/02 A2973 RMK AO2 PK
     WND 26038/2013 SLP070 T00780022 51046 $=
KORD 292051Z 25020G44KT 10SM BKN029 OVC036 09/02 A2970 RMK
     AO2 PK WND 24044/2044 SLP058 T00890022 53027 $=
KORD 292051Z 25020G44KT 10SM BKN029 OVC036 09/02 A2970 RMK
     AO2 PK WND 24044/2044 SLP058 T00890022 53027 $=
KORD 292051Z 25020G44KT 10SM BKN029 OVC036 09/02 A2970 RMK
     AO2 PK WND 24044/2044 SLP058 T00890022 53027 $=
MTRORD METAR KORD 292051Z 25020G44KT 10SM BKN029 OVC036
     09/02 A2970 RMK AO2 PK WND 24044/2044 SLP058 T00890022
     53027 $